Theta_e
360 359 360 361 362 362 361 360 357 353 352 352 349 348 348 347 349 351 351 352 352 353 352 352 352 352 351 350 349 351 353 353 354 356 356 358 359 358 357 356 357 356
359 360 359 358 357 359 357 351 345 342 342 343 342 342 343 344 347 348 348 349 348 347 347 347 348 348 349 349 349 350 354 355 355 355 355 357 356 356 356 356 355 355
358 358 357 351 346 347 347 342 339 340 340 341 341 341 342 343 345 346 346 347 346 344 343 343 345 345 347 349 351 354 355 356 356 354 355 355 355 355 354 355 355 355
355 351 346 342 341 341 341 340 340 341 340 339 339 339 340 342 344 345 345 345 344 344 343 344 346 345 345 347 350 353 355 356 356 355 355 355 354 354 353 353 354 355
347 343 339 341 342 343 343 342 340 339 337 337 337 337 339 340 342 343 343 342 342 342 343 344 345 345 345 346 347 350 353 354 353 354 356 356 355 354 353 354 354 355
340 340 341 342 344 345 344 341 339 338 337 337 337 338 338 338 339 340 341 341 341 341 341 341 343 344 345 346 347 349 351 352 351 351 354 356 356 354 353 353 355 355
337 340 344 345 346 347 346 341 339 338 338 338 337 337 338 339 340 341 341 342 342 342 341 341 342 344 344 345 346 348 350 351 350 350 352 354 355 354 354 353 354 355
339 341 345 347 347 348 346 342 339 339 337 338 337 338 340 340 341 341 341 342 343 342 343 342 343 344 345 346 347 347 348 348 348 349 349 350 352 354 355 354 354 354
343 346 348 349 350 349 347 343 340 339 337 339 340 341 340 341 341 341 341 342 343 344 344 345 345 345 345 347 348 349 349 348 347 347 346 347 348 350 351 353 353 354
348 349 350 351 350 349 347 345 342 339 338 340 342 342 340 340 341 341 341 343 344 345 346 346 347 347 347 348 349 350 350 349 348 347 347 346 347 347 348 349 350 351
350 352 351 351 349 348 346 345 343 342 341 341 344 344 343 342 343 343 342 343 344 345 346 347 348 349 349 349 350 350 350 349 348 348 348 348 347 347 348 348 348 349
352 353 353 353 352 350 347 346 345 345 345 344 345 346 346 346 345 345 344 342 343 344 345 346 347 348 349 349 349 349 349 349 348 348 349 348 348 348 348 348 348 348
351 353 353 353 353 352 350 348 348 349 348 346 347 347 348 347 347 346 344 344 345 345 345 346 346 346 348 348 348 349 349 348 348 348 348 348 348 348 348 348 347 346
352 351 353 354 354 354 353 351 351 349 348 347 348 348 348 347 347 346 345 346 346 346 346 347 347 346 346 347 347 347 348 348 348 348 348 347 347 348 348 347 347 346
354 354 355 354 354 354 352 351 350 349 348 349 349 348 347 346 346 346 346 346 345 346 346 346 346 346 346 346 346 347 347 347 347 347 347 346 346 346 346 347 347 347
356 355 355 353 352 351 350 349 349 349 348 348 348 348 347 347 347 346 346 346 346 346 346 346 346 345 346 345 346 346 346 346 346 345 346 345 345 346 346 346 347 347
353 351 351 350 350 349 349 348 348 348 348 347 347 347 346 346 346 346 346 345 345 345 345 345 345 344 345 345 345 345 345 345 345 344 345 345 345 345 345 345 346 346
348 348 349 349 349 349 349 348 348 348 347 346 346 345 345 345 344 345 345 345 344 344 344 344 344 343 344 344 343 343 343 344 343 343 343 344 345 345 345 345 346 346
348 349 349 349 349 349 348 347 347 346 345 345 345 344 343 344 343 344 344 344 344 344 343 343 343 343 343 343 342 342 342 343 342 342 342 343 344 343 343 345 346 346
348 348 349 348 348 347 347 346 345 344 344 343 343 343 343 343 343 343 343 343 343 343 343 343 343 342 342 342 342 342 342 342 342 342 342 343 343 343 343 344 345 346
348 348 347 346 346 345 345 344 343 343 343 342 342 342 342 343 342 342 343 342 343 343 343 343 342 342 342 342 342 342 342 342 342 342 342 343 343 343 344 344 345 345
346 346 345 345 344 343 343 342 342 342 342 342 342 342 342 342 341 342 342 342 342 342 342 342 342 342 342 341 342 342 341 341 342 342 343 344 343 344 345 345 346 345
344 344 344 343 343 342 342 341 341 341 341 341 342 341 341 342 341 341 341 341 341 342 342 342 342 342 342 342 342 342 341 342 343 343 343 343 344 344 345 346 346 345
342 343 343 342 342 341 341 341 340 340 341 341 340 341 341 341 340 340 340 340 341 341 341 341 341 342 341 341 342 342 341 342 343 343 343 343 342 342 344 345 345 345
341 341 342 341 340 340 340 340 340 340 340 340 339 340 339 339 339 339 339 339 339 339 340 340 341 341 341 341 342 341 341 342 343 344 345 343 341 342 344 344 343 344
340 340 340 339 339 339 339 339 339 339 339 339 338 338 338 338 338 338 338 338 339 339 340 339 340 341 341 342 342 342 342 342 342 344 344 342 340 342 344 342 341 344
Wind_Speed
9 8 8 7 7 7 7 7 8 10 10 11 13 15 16 17 17 18 19 18 18 19 20 20 20 20 20 20 21 22 22 21 21 20 20 21 22 22 23 22 22 23
9 8 7 7 7 6 6 7 8 9 10 11 14 15 16 16 17 18 19 19 20 20 21 21 20 20 20 21 21 21 21 21 21 20 20 21 21 22 22 22 23 23
9 8 8 8 7 5 5 6 7 8 9 10 12 13 14 14 15 16 17 18 19 19 20 19 20 20 20 21 21 21 21 21 21 21 21 21 21 21 21 21 22 23
9 9 8 7 6 5 6 6 7 8 9 10 11 12 13 13 14 15 16 17 18 19 19 19 20 20 20 21 20 20 21 21 22 22 21 22 21 21 21 21 21 22
9 8 7 6 6 7 7 7 8 9 10 11 12 12 12 13 14 15 16 16 17 18 19 19 20 20 20 20 20 21 21 21 22 21 21 21 21 21 21 21 21 22
8 8 8 8 8 8 8 9 11 11 11 12 12 12 13 14 15 16 16 17 17 18 19 19 20 20 20 20 20 20 21 22 21 20 20 20 21 22 21 21 21 21
10 10 10 9 10 10 10 11 12 12 12 12 12 13 14 15 16 17 18 18 18 19 19 20 20 21 21 21 21 20 21 22 21 20 20 20 21 22 22 21 22 22
11 10 11 11 11 12 12 12 13 13 13 13 14 14 15 16 17 18 18 18 19 20 20 20 21 21 22 23 23 22 22 22 22 21 21 21 21 22 22 22 22 23
12 12 12 13 13 13 14 14 15 14 13 14 14 15 15 16 17 18 19 19 20 21 21 21 22 22 22 23 23 24 24 23 23 23 22 22 22 22 22 22 23 24
14 14 14 15 15 15 15 16 16 15 14 15 15 16 17 18 18 19 20 20 21 22 22 22 22 22 23 23 23 24 24 24 24 24 24 23 23 23 22 23 23 24
16 16 16 16 17 17 17 17 17 16 16 16 16 17 18 19 19 20 21 22 22 22 22 22 22 23 23 23 24 24 24 25 24 24 25 25 24 24 23 23 24 24
17 16 17 17 18 18 18 17 17 17 17 17 17 18 19 19 19 20 21 23 23 23 23 23 23 23 24 24 25 25 25 25 25 25 26 26 25 25 25 25 25 25
17 17 17 17 17 17 17 16 16 16 17 17 17 18 19 20 21 21 22 22 22 22 23 24 24 24 24 25 25 25 25 26 26 26 26 27 26 26 26 27 27 27
16 17 16 16 16 16 15 15 16 16 17 17 18 19 20 21 22 22 22 21 21 22 23 23 24 24 24 25 25 25 25 26 27 27 27 28 27 26 27 27 28 28
14 14 14 14 14 14 14 15 15 16 16 17 18 20 22 22 22 22 22 22 22 22 23 23 23 24 24 24 24 24 24 25 26 26 26 27 27 27 27 27 27 28
11 12 12 13 13 13 14 14 15 16 17 18 20 21 22 21 21 21 21 21 22 22 23 23 23 24 24 25 25 25 25 25 26 26 26 27 27 27 27 27 27 28
10 11 12 13 13 14 14 15 16 17 17 19 20 21 21 21 21 21 21 21 22 23 23 24 24 24 24 25 26 26 27 27 27 27 27 27 27 28 27 27 27 27
11 12 12 13 14 14 15 16 16 17 18 19 20 21 21 21 21 21 22 22 22 23 24 25 25 25 25 26 27 27 27 28 28 28 28 27 27 28 28 26 26 27
12 12 13 14 15 15 16 17 17 19 20 20 21 21 21 21 22 22 22 23 23 24 25 25 26 25 25 26 28 28 29 28 28 29 29 28 28 29 29 27 26 26
12 13 14 15 16 16 17 18 20 20 21 21 21 21 22 22 23 23 23 23 23 24 25 25 26 25 25 26 27 28 29 29 29 31 31 30 30 30 30 29 28 27
14 15 16 17 18 19 19 20 21 21 22 22 21 21 22 23 23 23 23 24 24 24 25 25 26 25 26 27 28 28 29 29 30 30 30 30 31 31 31 31 29 27
16 17 18 18 19 20 20 21 22 22 22 22 22 22 23 23 23 24 23 24 24 24 25 26 26 26 27 28 29 29 29 29 28 28 28 27 28 29 29 29 28 27
17 19 20 20 20 21 22 22 23 23 23 23 22 23 23 23 24 24 24 24 24 25 26 26 26 27 28 29 30 29 29 27 25 25 27 26 27 29 29 28 28 29
19 20 20 21 21 22 22 23 23 23 23 23 23 23 24 24 24 24 25 25 25 25 26 27 28 29 30 31 31 30 30 28 25 24 26 28 30 32 30 28 28 31
20 20 21 22 22 23 23 24 24 24 24 24 23 23 24 25 24 25 25 25 25 26 27 27 28 29 30 31 31 30 30 27 24 23 24 29 32 31 29 31 30 29
21 21 22 23 23 24 24 24 24 24 23 23 23 24 24 25 24 24 25 25 25 26 26 26 27 28 28 28 28 28 27 26 24 22 25 31 33 28 28 33 33 28
Wind_Direction
230 229 231 232 235 248 260 268 273 278 282 284 284 284 281 279 277 275 273 270 267 266 267 267 266 265 266 266 264 261 258 258 257 256 254 253 252 253 254 252 250 251
219 218 224 236 242 243 252 269 280 284 286 284 283 284 282 279 276 273 272 272 271 271 271 270 268 267 265 264 263 260 258 256 254 254 253 252 252 254 255 254 253 252
210 215 226 240 245 238 244 265 272 273 278 279 281 283 284 282 280 278 276 275 275 275 274 272 269 267 264 262 260 259 257 257 256 255 254 253 253 253 253 252 252 251
219 225 228 228 222 218 234 256 265 272 281 285 287 289 288 286 284 280 278 276 275 275 273 271 269 268 267 265 262 259 258 258 258 257 256 255 254 252 253 252 252 251
223 217 212 204 203 212 228 254 275 286 290 290 290 290 288 287 283 281 280 278 276 274 272 269 268 267 266 265 263 261 260 259 260 259 257 255 255 253 253 252 251 250
214 205 204 207 211 219 237 267 284 290 291 290 291 290 289 288 284 281 281 279 278 277 274 271 270 268 267 266 264 262 260 261 263 264 260 257 258 257 255 253 251 250
214 211 210 218 224 229 246 270 283 286 288 289 289 288 286 285 284 282 280 278 276 276 275 272 270 269 269 268 266 264 262 264 266 266 264 261 261 261 259 258 255 253
221 222 221 226 231 237 251 269 280 282 283 283 282 282 282 282 283 283 281 278 276 275 273 272 270 267 267 266 265 264 263 264 266 265 264 262 261 261 260 259 257 255
225 228 228 231 236 243 253 269 279 278 276 274 273 275 278 280 282 284 284 281 277 275 272 271 270 267 266 265 265 265 264 264 265 265 266 264 262 262 261 260 259 257
230 230 231 234 240 248 257 267 274 270 268 266 264 269 276 279 281 284 284 281 276 273 270 268 268 266 266 265 264 265 265 264 265 265 266 266 264 264 264 262 262 261
234 233 234 238 243 251 261 267 267 261 260 260 259 264 271 274 278 280 282 281 276 273 270 267 267 265 265 264 263 264 264 265 266 265 265 266 265 263 263 262 262 262
242 241 241 244 246 253 261 266 262 256 254 256 258 262 266 270 273 275 279 281 277 273 270 267 266 265 264 264 264 264 264 264 264 264 264 265 265 264 263 262 261 261
249 249 250 252 252 255 259 260 257 254 255 258 260 262 265 268 270 272 276 278 275 271 269 267 266 264 263 262 263 263 263 263 263 263 263 264 264 264 264 263 262 262
257 258 256 256 254 254 256 255 255 257 259 261 262 264 266 269 271 274 275 274 272 270 269 268 266 264 262 261 261 261 261 262 262 263 263 264 264 263 263 263 263 262
261 261 257 254 252 252 254 256 258 260 262 263 263 266 270 272 271 272 273 272 270 269 268 267 265 263 262 260 260 261 261 262 263 263 264 265 265 265 264 263 263 262
260 258 256 254 255 256 259 261 263 263 264 265 267 269 271 272 272 272 272 271 269 268 267 266 265 263 261 260 260 261 262 264 265 266 267 268 267 268 267 264 262 261
259 258 257 257 259 262 264 266 266 267 268 268 270 272 272 274 275 274 273 271 270 269 268 268 267 265 264 263 262 261 262 264 267 268 269 269 269 268 268 266 264 262
262 262 262 262 264 267 269 270 270 270 271 273 274 276 277 278 277 275 274 273 272 271 270 270 269 268 267 266 265 265 265 264 266 269 270 269 269 268 268 266 265 264
270 270 270 270 271 273 274 275 275 274 276 278 279 281 281 279 277 276 275 274 273 272 272 271 272 271 270 269 267 267 266 264 264 266 268 268 267 267 267 266 264 264
276 274 275 277 277 278 278 278 279 280 281 282 282 282 281 278 277 276 275 274 273 273 273 272 272 272 271 270 268 266 264 263 262 264 266 267 267 266 266 265 263 262
281 281 281 282 282 281 282 282 282 283 284 284 283 282 280 279 278 277 276 275 274 273 273 273 273 273 272 271 269 266 265 263 262 264 267 267 268 267 266 265 263 262
287 287 285 285 285 284 284 284 284 285 285 285 284 282 281 280 279 278 277 277 276 275 275 275 275 274 273 271 270 268 266 264 262 265 268 267 268 268 266 265 262 259
291 291 289 288 287 286 285 285 285 285 284 283 283 282 281 280 279 279 279 278 277 276 275 276 276 275 273 271 271 270 267 263 262 265 266 265 266 266 264 263 260 257
292 290 288 288 287 286 286 286 285 284 283 283 282 281 281 281 281 280 279 278 277 276 276 276 275 274 272 270 269 269 268 265 262 264 264 264 268 267 263 260 261 259
291 288 287 288 288 288 287 287 286 285 284 283 282 281 281 281 281 280 280 280 278 277 276 275 274 273 272 271 270 270 270 265 261 261 262 266 270 268 263 264 265 262
290 289 289 289 289 289 288 287 287 286 286 285 284 284 284 284 283 283 282 281 280 278 277 274 273 273 273 273 272 271 271 267 263 261 263 269 270 266 263 267 266 262